Location: Ehrke Reservoir
(40.0279°N, 99.6641°W)
Time: 21:51:53
(UTC+00:00)

Cosmos 1610 Rocket - Pass Details

Date: 20 January 2020
Orbit: 954 x 1001 km, 82.9° (Epoch: 25 February)

Event Time Altitude Azimuth Distance (km) Brightness Sun altitude
Rises 11:44:33 0° 351° (N) 3,680 7.4 -25.0°
Reaches altitude 10° 11:47:03 10° 351° (N) 2,735 6.7 -24.5°
Maximum altitude 11:53:20 83° 265° (W) 999 4.4 -23.3°
Drops below altitude 10° 11:59:39 10° 178° (S) 2,749 7.0 -22.2°
Sets 12:02:10 0° 178° (S) 3,699 7.7 -21.7°
